This is the latest recevied weather packets stored in our database for station/object DH1NAI-6. If no packets are shown the sender has not sent any weather packets the latest 10 day(s).
| Time | Temp. | Humidity | Pressure | Rain* | Wind** | Luminosity | Snow |
|---|---|---|---|---|---|---|---|
| 1788147075 | 15.56° C | 95% | 1011.9 hPa | 1.02 mm | - | 0 W/m² | - |
| 1788146466 | 16.11° C | 91% | 1011.8 hPa | 1.02 mm | - | 0 W/m² | - |
| 1788145859 | 16.67° C | 87% | 1011.6 hPa | 0 mm | - | 0 W/m² | - |
| 1788145250 | 16.67° C | 87% | 1011.3 hPa | 0 mm | - | 0 W/m² | - |
| 1788144643 | 16.11° C | 89% | 1011.5 hPa | 0 mm | - | 0 W/m² | - |
| 1788144031 | 15.56° C | 93% | 1011.4 hPa | 0 mm | - | 0 W/m² | - |
| 1788143426 | 14.44° C | 99% | 1011.4 hPa | 0 mm | - | 0 W/m² | - |
| 1788142818 | 12.78° C | 99% | 1011.5 hPa | 0 mm | - | 0 W/m² | - |
| 1788142211 | 12.22° C | 99% | 1011.5 hPa | 0 mm | - | 0 W/m² | - |
| 1788141602 | 12.22° C | 99% | 1011.5 hPa | 0 mm | - | 0 W/m² | - |
| 1788140978 | 11.67° C | 99% | 1011.5 hPa | 0 mm | - | 0 W/m² | - |
| 1788140371 | 11.67° C | 99% | 1012 hPa | 0 mm | - | 0 W/m² | - |
| 1788139762 | 11.67° C | 99% | 1012.1 hPa | 0 mm | - | 0 W/m² | - |
| 1788139154 | 11.11° C | 99% | 1012.2 hPa | 0 mm | - | 0 W/m² | - |
| 1788138530 | 11.11° C | 99% | 1012.3 hPa | 0 mm | - | 0 W/m² | - |
| 1788137923 | 9.44° C | 99% | 1012.3 hPa | 0 mm | - | 0 W/m² | - |
| 1788137314 | 10° C | 99% | 1012.4 hPa | 0 mm | - | 0 W/m² | - |
| 1788136707 | 9.44° C | 99% | 1012.6 hPa | 0 mm | - | 0 W/m² | - |
| 1788136098 | 10° C | 99% | 1012.6 hPa | 0 mm | - | 0 W/m² | - |
| 1788135490 | 10° C | 99% | 1012.7 hPa | 0 mm | - | 0 W/m² | - |
| 1788134882 | 10° C | 99% | 1012.7 hPa | 0 mm | - | 0 W/m² | - |
| 1788134274 | 9.44° C | 99% | 1013 hPa | 0 mm | - | 0 W/m² | - |
| 1788133666 | 9.44° C | 99% | 1013.1 hPa | 0 mm | - | 0 W/m² | - |
| 1788133058 | 9.44° C | 99% | 1013.1 hPa | 0 mm | - | 0 W/m² | - |
| 1788132450 | 9.44° C | 99% | 1013.1 hPa | 0 mm | - | 0 W/m² | - |
* Rain latest hour (hover to see other rain measurements)
** Current wind speed in m/s (hover to see current wind gust speed)